Year,Month,Day,Hour,Minute,Value (Times are PST for temperature in C)
2013,08,21,00,00,18.30
2013,08,21,00,01,18.30
2013,08,21,00,02,18.30
2013,08,21,00,03,18.30
2013,08,21,00,04,18.30
2013,08,21,00,05,18.20
2013,08,21,00,06,18.20
2013,08,21,00,07,18.20
2013,08,21,00,08,18.20
2013,08,21,00,09,18.10
2013,08,21,00,10,18.10
2013,08,21,00,11,18.10
2013,08,21,00,12,18.00
2013,08,21,00,13,18.00
2013,08,21,00,14,18.00
2013,08,21,00,15,18.00
2013,08,21,00,16,18.00
2013,08,21,00,17,18.00
2013,08,21,00,18,18.00
2013,08,21,00,19,18.00
2013,08,21,00,20,17.90
2013,08,21,00,21,17.90
2013,08,21,00,22,17.90
2013,08,21,00,23,17.90
2013,08,21,00,24,17.90
2013,08,21,00,25,17.90
2013,08,21,00,26,17.90
2013,08,21,00,27,17.80
2013,08,21,00,28,17.80
2013,08,21,00,29,17.80
2013,08,21,00,30,17.80
2013,08,21,00,31,17.80
2013,08,21,00,32,17.80
2013,08,21,00,33,17.70
2013,08,21,00,34,17.70
2013,08,21,00,35,17.70
2013,08,21,00,36,17.70
2013,08,21,00,37,17.70
2013,08,21,00,38,17.70
2013,08,21,00,39,17.70
2013,08,21,00,40,17.70
2013,08,21,00,41,17.70
2013,08,21,00,42,17.70
2013,08,21,00,43,17.70
2013,08,21,00,44,17.70
2013,08,21,00,45,17.60
2013,08,21,00,46,17.60
2013,08,21,00,47,17.60
2013,08,21,00,48,17.70
2013,08,21,00,49,17.70
2013,08,21,00,50,17.70
2013,08,21,00,51,17.60
2013,08,21,00,52,17.60
2013,08,21,00,53,17.60
2013,08,21,00,54,17.60
2013,08,21,00,55,17.60
2013,08,21,00,56,17.60
2013,08,21,00,57,17.50
2013,08,21,00,58,17.50
2013,08,21,00,59,17.50
2013,08,21,01,00,17.40
2013,08,21,01,01,17.40
2013,08,21,01,02,17.40
2013,08,21,01,03,17.40
2013,08,21,01,04,17.40
2013,08,21,01,05,17.40
2013,08,21,01,06,17.30
2013,08,21,01,07,17.30
2013,08,21,01,08,17.30
2013,08,21,01,09,17.30
2013,08,21,01,10,17.30
2013,08,21,01,11,17.30
2013,08,21,01,12,17.30
2013,08,21,01,13,17.30
2013,08,21,01,14,17.30
2013,08,21,01,15,17.20
2013,08,21,01,16,17.20
2013,08,21,01,17,17.20
2013,08,21,01,18,17.20
2013,08,21,01,19,17.20
2013,08,21,01,20,17.20
2013,08,21,01,21,17.20
2013,08,21,01,22,17.20
2013,08,21,01,23,17.20
2013,08,21,01,24,17.20
2013,08,21,01,25,17.20
2013,08,21,01,26,17.20
2013,08,21,01,27,17.20
2013,08,21,01,28,17.20
2013,08,21,01,29,17.20
2013,08,21,01,30,17.20
2013,08,21,01,31,17.10
2013,08,21,01,32,17.10
2013,08,21,01,33,17.10
2013,08,21,01,34,17.10
2013,08,21,01,35,17.10
2013,08,21,01,36,17.10
2013,08,21,01,37,17.10
2013,08,21,01,38,17.10
2013,08,21,01,39,17.10
2013,08,21,01,40,17.10
2013,08,21,01,41,17.10
2013,08,21,01,42,17.10
2013,08,21,01,43,17.10
2013,08,21,01,44,17.10
2013,08,21,01,45,17.10
2013,08,21,01,46,17.10
2013,08,21,01,47,17.10
2013,08,21,01,48,17.10
2013,08,21,01,49,17.10
2013,08,21,01,50,17.10
2013,08,21,01,51,17.10
2013,08,21,01,52,17.10
2013,08,21,01,53,17.10
2013,08,21,01,54,17.00
2013,08,21,01,55,17.00
2013,08,21,01,56,17.00
2013,08,21,01,57,17.00
2013,08,21,01,58,17.00
2013,08,21,01,59,17.00
2013,08,21,02,00,17.00
2013,08,21,02,01,17.00
2013,08,21,02,02,17.00
2013,08,21,02,03,17.00
2013,08,21,02,04,17.00
2013,08,21,02,05,17.00
2013,08,21,02,06,17.00
2013,08,21,02,07,16.90
2013,08,21,02,08,16.90
2013,08,21,02,09,16.90
2013,08,21,02,10,16.90
2013,08,21,02,11,16.90
2013,08,21,02,12,16.90
2013,08,21,02,13,16.90
2013,08,21,02,14,16.90
2013,08,21,02,15,16.90
2013,08,21,02,16,16.90
2013,08,21,02,17,16.90
2013,08,21,02,18,16.90
2013,08,21,02,19,16.90
2013,08,21,02,20,16.90
2013,08,21,02,21,16.90
2013,08,21,02,22,16.90
2013,08,21,02,23,16.80
2013,08,21,02,24,16.80
2013,08,21,02,25,16.80
2013,08,21,02,26,16.80
2013,08,21,02,27,16.80
2013,08,21,02,28,16.80
2013,08,21,02,29,16.80
2013,08,21,02,30,16.80
2013,08,21,02,31,16.80
2013,08,21,02,32,16.80
2013,08,21,02,33,16.80
2013,08,21,02,34,16.80
2013,08,21,02,35,16.80
2013,08,21,02,36,16.80
2013,08,21,02,37,16.80
2013,08,21,02,38,16.80
2013,08,21,02,39,16.80
2013,08,21,02,40,16.80
2013,08,21,02,41,16.80
2013,08,21,02,42,16.80
2013,08,21,02,43,16.70
2013,08,21,02,44,16.70
2013,08,21,02,45,16.70
2013,08,21,02,46,16.70
2013,08,21,02,47,16.70
2013,08,21,02,48,16.70
2013,08,21,02,49,16.70
2013,08,21,02,50,16.70
2013,08,21,02,51,16.70
2013,08,21,02,52,16.70
2013,08,21,02,53,16.70
2013,08,21,02,54,16.70
2013,08,21,02,55,16.70
2013,08,21,02,56,16.70
2013,08,21,02,57,16.70
2013,08,21,02,58,16.70
2013,08,21,02,59,16.70
2013,08,21,03,00,16.70
2013,08,21,03,01,16.70
2013,08,21,03,02,16.70
2013,08,21,03,06,16.70
2013,08,21,03,07,16.70
2013,08,21,03,08,16.70
2013,08,21,03,09,16.70
2013,08,21,03,10,16.70
2013,08,21,03,11,16.70
2013,08,21,03,12,16.70
2013,08,21,03,13,16.60
2013,08,21,03,14,16.60
2013,08,21,03,15,16.60
2013,08,21,03,16,16.60
2013,08,21,03,17,16.60
2013,08,21,03,18,16.60
2013,08,21,03,19,16.60
2013,08,21,03,20,16.60
2013,08,21,03,21,16.60
2013,08,21,03,22,16.60
2013,08,21,03,23,16.60
2013,08,21,03,24,16.60
2013,08,21,03,25,16.60
2013,08,21,03,26,16.50
2013,08,21,03,27,16.50
2013,08,21,03,28,16.50
2013,08,21,03,29,16.40
2013,08,21,03,30,16.40
2013,08,21,03,31,16.40
2013,08,21,03,32,16.40
2013,08,21,03,33,16.30
2013,08,21,03,34,16.30
2013,08,21,03,35,16.30
2013,08,21,03,36,16.30
2013,08,21,03,37,16.20
2013,08,21,03,38,16.20
2013,08,21,03,39,16.20
2013,08,21,03,40,16.20
2013,08,21,03,41,16.20
2013,08,21,03,42,16.20
2013,08,21,03,43,16.20
2013,08,21,03,44,16.20
2013,08,21,03,45,16.20
2013,08,21,03,46,16.20
2013,08,21,03,47,16.20
2013,08,21,03,48,16.20
2013,08,21,03,49,16.20
2013,08,21,03,50,16.20
2013,08,21,03,51,16.20
2013,08,21,03,52,16.20
2013,08,21,03,53,16.20
2013,08,21,03,54,16.10
2013,08,21,03,55,16.10
2013,08,21,03,56,16.10
2013,08,21,03,57,16.10
2013,08,21,03,58,16.10
2013,08,21,03,59,16.00
2013,08,21,04,00,16.00
2013,08,21,04,01,16.00
2013,08,21,04,02,16.00
2013,08,21,04,03,16.00
2013,08,21,04,04,15.90
2013,08,21,04,05,15.90
2013,08,21,04,06,15.90
2013,08,21,04,07,15.90
2013,08,21,04,08,15.90
2013,08,21,04,09,15.90
2013,08,21,04,10,15.90
2013,08,21,04,11,15.90
2013,08,21,04,12,15.90
2013,08,21,04,13,15.90
2013,08,21,04,14,15.90
2013,08,21,04,15,15.90
2013,08,21,04,16,15.80
2013,08,21,04,17,15.80
2013,08,21,04,18,15.80
2013,08,21,04,19,15.80
2013,08,21,04,20,15.80
2013,08,21,04,21,15.80
2013,08,21,04,22,15.80
2013,08,21,04,23,15.80
2013,08,21,04,24,15.90
2013,08,21,04,25,15.90
2013,08,21,04,26,15.90
2013,08,21,04,27,15.90
2013,08,21,04,28,15.90
2013,08,21,04,29,15.90
2013,08,21,04,30,15.90
2013,08,21,04,31,15.90
2013,08,21,04,32,15.90
2013,08,21,04,33,15.90
2013,08,21,04,34,15.90
2013,08,21,04,35,15.90
2013,08,21,04,36,15.90
2013,08,21,04,37,15.90
2013,08,21,04,38,15.80
2013,08,21,04,39,15.80
2013,08,21,04,40,15.80
2013,08,21,04,41,15.80
2013,08,21,04,42,15.80
2013,08,21,04,43,15.80
2013,08,21,04,44,15.80
2013,08,21,04,45,15.80
2013,08,21,04,46,15.80
2013,08,21,04,47,15.80
2013,08,21,04,48,15.80
2013,08,21,04,49,15.80
2013,08,21,04,50,15.80
2013,08,21,04,51,15.80
2013,08,21,04,52,15.80
2013,08,21,04,53,15.80
2013,08,21,04,54,15.80
2013,08,21,04,55,15.80
2013,08,21,04,56,15.80
2013,08,21,04,57,15.80
2013,08,21,04,58,15.80
2013,08,21,04,59,15.80
2013,08,21,05,00,15.80
2013,08,21,05,01,15.70
2013,08,21,05,02,15.70
2013,08,21,05,03,15.70
2013,08,21,05,04,15.70
2013,08,21,05,05,15.70
2013,08,21,05,06,15.70
2013,08,21,05,07,15.70
2013,08,21,05,08,15.70
2013,08,21,05,09,15.70
2013,08,21,05,10,15.70
2013,08,21,05,11,15.80
2013,08,21,05,12,15.80
2013,08,21,05,13,15.80
2013,08,21,05,14,15.80
2013,08,21,05,15,15.80
2013,08,21,05,16,15.80
2013,08,21,05,17,15.80
2013,08,21,05,18,15.80
2013,08,21,05,19,15.80
2013,08,21,05,20,15.80
2013,08,21,05,21,15.80
2013,08,21,05,22,15.80
2013,08,21,05,23,15.80
2013,08,21,05,24,15.80
2013,08,21,05,25,15.80
2013,08,21,05,26,15.80
2013,08,21,05,27,15.80
2013,08,21,05,28,15.80
2013,08,21,05,29,15.80
2013,08,21,05,30,15.80
2013,08,21,05,31,15.70
2013,08,21,05,32,15.70
2013,08,21,05,33,15.70
2013,08,21,05,34,15.70
2013,08,21,05,35,15.70
2013,08,21,05,36,15.70
2013,08,21,05,37,15.70
2013,08,21,05,38,15.70
2013,08,21,05,39,15.70
2013,08,21,05,40,15.70
2013,08,21,05,41,15.70
2013,08,21,05,42,15.70
2013,08,21,05,43,15.70
2013,08,21,05,44,15.70
2013,08,21,05,45,15.60
2013,08,21,05,46,15.60
2013,08,21,05,47,15.60
2013,08,21,05,48,15.60
2013,08,21,05,49,15.60
2013,08,21,05,50,15.50
2013,08,21,05,51,15.50
2013,08,21,05,52,15.50
2013,08,21,05,53,15.50
2013,08,21,05,54,15.50
2013,08,21,05,55,15.50
2013,08,21,05,56,15.40
2013,08,21,05,57,15.40
2013,08,21,05,58,15.40
2013,08,21,05,59,15.40
2013,08,21,06,00,15.40
2013,08,21,06,01,15.40
2013,08,21,06,02,15.40
2013,08,21,06,03,15.40
2013,08,21,06,04,15.40
2013,08,21,06,05,15.40
2013,08,21,06,06,15.30
2013,08,21,06,07,15.30
2013,08,21,06,08,15.30
2013,08,21,06,09,15.30
2013,08,21,06,10,15.30
2013,08,21,06,11,15.30
2013,08,21,06,12,15.30
2013,08,21,06,13,15.30
2013,08,21,06,14,15.30
2013,08,21,06,15,15.30
2013,08,21,06,16,15.30
2013,08,21,06,17,15.30
2013,08,21,06,18,15.30
2013,08,21,06,19,15.30
2013,08,21,06,20,15.30
2013,08,21,06,21,15.30
2013,08,21,06,22,15.30
2013,08,21,06,23,15.30
2013,08,21,06,24,15.30
2013,08,21,06,25,15.30
2013,08,21,06,26,15.40
2013,08,21,06,27,15.40
2013,08,21,06,28,15.30
2013,08,21,06,29,15.30
2013,08,21,06,30,15.30
2013,08,21,06,31,15.30
2013,08,21,06,32,15.30
2013,08,21,06,33,15.30
2013,08,21,06,34,15.30
2013,08,21,06,35,15.30
2013,08,21,06,36,15.30
2013,08,21,06,37,15.30
2013,08,21,06,38,15.30
2013,08,21,06,39,15.30
2013,08,21,06,40,15.40
2013,08,21,06,41,15.40
2013,08,21,06,42,15.40
2013,08,21,06,43,15.40
2013,08,21,06,44,15.40
2013,08,21,06,45,15.40
2013,08,21,06,46,15.50
2013,08,21,06,47,15.50
2013,08,21,06,48,15.50
2013,08,21,06,49,15.50
2013,08,21,06,50,15.60
2013,08,21,06,51,15.60
2013,08,21,06,52,15.60
2013,08,21,06,53,15.60
2013,08,21,06,54,15.60
2013,08,21,06,55,15.60
2013,08,21,06,56,15.60
2013,08,21,06,57,15.60
2013,08,21,06,58,15.60
2013,08,21,06,59,15.60
2013,08,21,07,00,15.60
2013,08,21,07,01,15.60
2013,08,21,07,02,15.60
2013,08,21,07,03,15.60
2013,08,21,07,04,15.70
2013,08,21,07,05,15.70
2013,08,21,07,06,15.70
2013,08,21,07,07,15.70
2013,08,21,07,08,15.70
2013,08,21,07,09,15.70
2013,08,21,07,10,15.70
2013,08,21,07,11,15.70
2013,08,21,07,12,15.70
2013,08,21,07,13,15.70
2013,08,21,07,14,15.70
2013,08,21,07,15,15.70
2013,08,21,07,16,15.70
2013,08,21,07,17,15.70
2013,08,21,07,18,15.70
2013,08,21,07,19,15.70
2013,08,21,07,20,15.70
2013,08,21,07,21,15.70
2013,08,21,07,22,15.70
2013,08,21,07,23,15.70
2013,08,21,07,24,15.70
2013,08,21,07,25,15.80
2013,08,21,07,26,15.80
2013,08,21,07,27,15.80
2013,08,21,07,28,15.80
2013,08,21,07,29,15.80
2013,08,21,07,30,15.90
2013,08,21,07,31,15.90
2013,08,21,07,32,15.90
2013,08,21,07,33,16.00
2013,08,21,07,34,16.00
2013,08,21,07,35,16.10
2013,08,21,07,36,16.10
2013,08,21,07,37,16.10
2013,08,21,07,38,16.20
2013,08,21,07,39,16.20
2013,08,21,07,40,16.20
2013,08,21,07,41,16.30
2013,08,21,07,42,16.30
2013,08,21,07,43,16.30
2013,08,21,07,44,16.30
2013,08,21,07,45,16.30
2013,08,21,07,46,16.40
2013,08,21,07,47,16.40
2013,08,21,07,48,16.40
2013,08,21,07,49,16.40
2013,08,21,07,50,16.40
2013,08,21,07,51,16.50
2013,08,21,07,52,16.50
2013,08,21,07,53,16.50
2013,08,21,07,54,16.60
2013,08,21,07,55,16.60
2013,08,21,07,56,16.60
2013,08,21,07,57,16.60
2013,08,21,07,58,16.60
2013,08,21,07,59,16.70
2013,08,21,08,00,16.70
2013,08,21,08,01,16.70
2013,08,21,08,02,16.70
2013,08,21,08,03,16.80
2013,08,21,08,04,16.80
2013,08,21,08,05,16.80
2013,08,21,08,06,16.80
2013,08,21,08,07,16.90
2013,08,21,08,08,16.90
2013,08,21,08,09,16.90
2013,08,21,08,10,17.00
2013,08,21,08,11,17.00
2013,08,21,08,12,17.00
2013,08,21,08,13,17.00
2013,08,21,08,14,17.00
2013,08,21,08,15,17.00
2013,08,21,08,16,17.00
2013,08,21,08,17,16.90
2013,08,21,08,18,16.90
2013,08,21,08,19,16.90
2013,08,21,08,20,16.90
2013,08,21,08,21,16.90
2013,08,21,08,22,16.90
2013,08,21,08,23,16.90
2013,08,21,08,24,16.90
2013,08,21,08,25,16.90
2013,08,21,08,26,16.90
2013,08,21,08,27,17.00
2013,08,21,08,28,16.90
2013,08,21,08,29,17.00
2013,08,21,08,30,17.00
2013,08,21,08,31,17.00
2013,08,21,08,32,17.00
2013,08,21,08,33,17.00
2013,08,21,08,34,17.00
2013,08,21,08,35,17.00
2013,08,21,08,36,17.10
2013,08,21,08,37,17.00
2013,08,21,08,38,17.10
2013,08,21,08,39,17.00
2013,08,21,08,40,17.10
2013,08,21,08,41,17.10
2013,08,21,08,42,17.10
2013,08,21,08,43,17.10
2013,08,21,08,44,17.20
2013,08,21,08,45,17.20
2013,08,21,08,46,17.20
2013,08,21,08,47,17.30
2013,08,21,08,48,17.30
2013,08,21,08,49,17.30
2013,08,21,08,50,17.40
2013,08,21,08,51,17.50
2013,08,21,08,52,17.50
2013,08,21,08,53,17.60
2013,08,21,08,54,17.60
2013,08,21,08,55,17.60
2013,08,21,08,56,17.70
2013,08,21,08,57,17.70
2013,08,21,08,58,17.70
2013,08,21,08,59,17.70
2013,08,21,09,00,17.80
2013,08,21,09,01,17.70
2013,08,21,09,02,17.80
2013,08,21,09,03,17.80
2013,08,21,09,04,17.80
2013,08,21,09,05,17.80
2013,08,21,09,06,17.80
2013,08,21,09,07,17.80
2013,08,21,09,08,17.80
2013,08,21,09,09,17.80
2013,08,21,09,10,17.90
2013,08,21,09,11,17.80
2013,08,21,09,12,17.90
2013,08,21,09,13,17.80
2013,08,21,09,14,17.80
2013,08,21,09,15,17.80
2013,08,21,09,16,17.80
2013,08,21,09,17,17.80
2013,08,21,09,18,17.80
2013,08,21,09,19,17.80
2013,08,21,09,20,17.90
2013,08,21,09,21,17.90
2013,08,21,09,22,18.00
2013,08,21,09,23,18.10
2013,08,21,09,24,18.10
2013,08,21,09,25,18.20
2013,08,21,09,26,18.20
2013,08,21,09,27,18.20
2013,08,21,09,28,18.30
2013,08,21,09,29,18.30
2013,08,21,09,30,18.30
2013,08,21,09,31,18.40
2013,08,21,09,32,18.40
2013,08,21,09,33,18.40
2013,08,21,09,34,18.40
2013,08,21,09,35,18.40
2013,08,21,09,36,18.40
2013,08,21,09,37,18.40
2013,08,21,09,38,18.40
2013,08,21,09,39,18.50
2013,08,21,09,40,18.50
2013,08,21,09,41,18.50
2013,08,21,09,42,18.60
2013,08,21,09,43,18.60
2013,08,21,09,44,18.60
2013,08,21,09,45,18.70
2013,08,21,09,46,18.70
2013,08,21,09,47,18.70
2013,08,21,09,48,18.70
2013,08,21,09,49,18.60
2013,08,21,09,50,18.60
2013,08,21,09,51,18.60
2013,08,21,09,52,18.70
2013,08,21,09,53,18.70
2013,08,21,09,54,18.70
2013,08,21,09,55,18.80
2013,08,21,09,56,18.80
2013,08,21,09,57,18.90
2013,08,21,09,58,18.90
2013,08,21,09,59,19.00
2013,08,21,10,00,19.00
2013,08,21,10,01,19.10
2013,08,21,10,02,19.00
2013,08,21,10,03,19.00
2013,08,21,10,04,19.00
2013,08,21,10,05,19.00
2013,08,21,10,06,19.00
2013,08,21,10,07,19.00
2013,08,21,10,08,19.10
2013,08,21,10,09,19.00
2013,08,21,10,10,19.00
2013,08,21,10,11,19.00
2013,08,21,10,12,19.00
2013,08,21,10,13,19.00
2013,08,21,10,14,19.10
2013,08,21,10,15,19.10
2013,08,21,10,16,19.10
2013,08,21,10,17,19.20
2013,08,21,10,18,19.20
2013,08,21,10,19,19.20
2013,08,21,10,20,19.30
2013,08,21,10,21,19.40
2013,08,21,10,22,19.50
2013,08,21,10,23,19.60
2013,08,21,10,24,19.70
2013,08,21,10,25,19.70
2013,08,21,10,26,19.70
2013,08,21,10,27,19.70
2013,08,21,10,28,19.70
2013,08,21,10,29,19.80
2013,08,21,10,30,19.80
2013,08,21,10,31,19.80
2013,08,21,10,32,19.80
2013,08,21,10,33,19.80
2013,08,21,10,34,19.80
2013,08,21,10,35,19.90
2013,08,21,10,36,19.90
2013,08,21,10,37,19.80
2013,08,21,10,38,19.70
2013,08,21,10,39,19.70
2013,08,21,10,40,19.80
2013,08,21,10,41,19.80
2013,08,21,10,42,19.80
2013,08,21,10,43,19.70
2013,08,21,10,44,19.60
2013,08,21,10,45,19.60
2013,08,21,10,46,19.60
2013,08,21,10,47,19.60
2013,08,21,10,48,19.60
2013,08,21,10,49,19.60
2013,08,21,10,50,19.60
2013,08,21,10,51,19.50
2013,08,21,10,52,19.40
2013,08,21,10,53,19.40
2013,08,21,10,54,19.50
2013,08,21,10,55,19.50
2013,08,21,10,56,19.50
2013,08,21,10,57,19.50
2013,08,21,10,58,19.50
2013,08,21,10,59,19.40
2013,08,21,11,00,19.40
2013,08,21,11,01,19.40
2013,08,21,11,02,19.40
2013,08,21,11,03,19.40
2013,08,21,11,04,19.40
2013,08,21,11,05,19.40
2013,08,21,11,06,19.30
2013,08,21,11,07,19.40
2013,08,21,11,08,19.40
2013,08,21,11,09,19.50
2013,08,21,11,10,19.50
2013,08,21,11,11,19.50
2013,08,21,11,12,19.50
2013,08,21,11,13,19.50
2013,08,21,11,14,19.60
2013,08,21,11,15,19.60
2013,08,21,11,16,19.60
2013,08,21,11,17,19.60
2013,08,21,11,18,19.60
2013,08,21,11,19,19.60
2013,08,21,11,20,19.60
2013,08,21,11,21,19.60
2013,08,21,11,22,19.60
2013,08,21,11,23,19.70
2013,08,21,11,24,19.80
2013,08,21,11,25,19.90
2013,08,21,11,26,19.90
2013,08,21,11,27,19.90
2013,08,21,11,28,19.90
2013,08,21,11,29,19.90
2013,08,21,11,30,19.80
2013,08,21,11,31,19.70
2013,08,21,11,32,19.60
2013,08,21,11,33,19.60
2013,08,21,11,34,19.50
2013,08,21,11,35,19.50
2013,08,21,11,36,19.50
2013,08,21,11,37,19.50
2013,08,21,11,38,19.50
2013,08,21,11,39,19.50
2013,08,21,11,40,19.60
2013,08,21,11,41,19.60
2013,08,21,11,42,19.60
2013,08,21,11,43,19.60
2013,08,21,11,44,19.70
2013,08,21,11,45,19.80
2013,08,21,11,46,19.90
2013,08,21,11,47,19.90
2013,08,21,11,48,19.90
2013,08,21,11,49,19.90
2013,08,21,11,50,19.90
2013,08,21,11,51,19.90
2013,08,21,11,52,19.90
2013,08,21,11,53,19.90
2013,08,21,11,54,19.90
2013,08,21,11,55,19.90
2013,08,21,11,56,19.90
2013,08,21,11,57,19.90
2013,08,21,11,58,20.00
2013,08,21,11,59,20.00
2013,08,21,12,00,20.00
2013,08,21,12,01,20.10
2013,08,21,12,02,20.10
2013,08,21,12,03,20.10
2013,08,21,12,04,20.20
2013,08,21,12,05,20.20
2013,08,21,12,06,20.20
2013,08,21,12,07,20.20
2013,08,21,12,08,20.30
2013,08,21,12,09,20.30
2013,08,21,12,10,20.30
2013,08,21,12,11,20.30
2013,08,21,12,12,20.30
2013,08,21,12,13,20.20
2013,08,21,12,14,20.20
2013,08,21,12,15,20.20
2013,08,21,12,16,20.20
2013,08,21,12,17,20.20
2013,08,21,12,18,20.20
2013,08,21,12,19,20.20
2013,08,21,12,20,20.30
2013,08,21,12,21,20.30
2013,08,21,12,22,20.30
2013,08,21,12,23,20.30
2013,08,21,12,24,20.30
2013,08,21,12,25,20.30
2013,08,21,12,26,20.30
2013,08,21,12,27,20.30
2013,08,21,12,28,20.40
2013,08,21,12,29,20.40
2013,08,21,12,30,20.40
2013,08,21,12,31,20.40
2013,08,21,12,32,20.40
2013,08,21,12,33,20.40
2013,08,21,12,34,20.40
2013,08,21,12,35,20.30
2013,08,21,12,36,20.30
2013,08,21,12,37,20.30
2013,08,21,12,38,20.30
2013,08,21,12,39,20.30
2013,08,21,12,40,20.30
2013,08,21,12,41,20.30
2013,08,21,12,42,20.30
2013,08,21,12,43,20.40
2013,08,21,12,44,20.40
2013,08,21,12,45,20.40
2013,08,21,12,46,20.40
2013,08,21,12,47,20.40
2013,08,21,12,48,20.40
2013,08,21,12,49,20.40
2013,08,21,12,50,20.40
2013,08,21,12,51,20.40
2013,08,21,12,52,20.40
2013,08,21,12,53,20.50
2013,08,21,12,54,20.50
2013,08,21,12,55,20.60
2013,08,21,12,56,20.50
2013,08,21,12,57,20.50
2013,08,21,12,58,20.60
2013,08,21,12,59,20.60
2013,08,21,13,00,20.60
2013,08,21,13,01,20.60
2013,08,21,13,02,20.70
2013,08,21,13,03,20.70
2013,08,21,13,04,20.70
2013,08,21,13,05,20.70
2013,08,21,13,06,20.70
2013,08,21,13,07,20.70
2013,08,21,13,08,20.70
2013,08,21,13,09,20.70
2013,08,21,13,10,20.70
2013,08,21,13,11,20.60
2013,08,21,13,12,20.60
2013,08,21,13,13,20.60
2013,08,21,13,14,20.60
2013,08,21,13,15,20.60
2013,08,21,13,16,20.60
2013,08,21,13,17,20.70
2013,08,21,13,18,20.90
2013,08,21,13,19,21.00
2013,08,21,13,20,21.10
2013,08,21,13,21,21.30
2013,08,21,13,22,21.30
2013,08,21,13,23,21.30
2013,08,21,13,24,21.20
2013,08,21,13,25,21.10
2013,08,21,13,26,21.00
2013,08,21,13,27,21.10
2013,08,21,13,28,21.10
2013,08,21,13,29,21.20
2013,08,21,13,30,21.40
2013,08,21,13,31,21.40
2013,08,21,13,32,21.40
2013,08,21,13,33,21.50
2013,08,21,13,34,21.60
2013,08,21,13,35,21.60
2013,08,21,13,36,21.70
2013,08,21,13,37,21.60
2013,08,21,13,38,21.60
2013,08,21,13,39,21.60
2013,08,21,13,40,21.50
2013,08,21,13,41,21.40
2013,08,21,13,42,21.40
2013,08,21,13,43,21.40
2013,08,21,13,44,21.40
2013,08,21,13,45,21.30
2013,08,21,13,46,21.40
2013,08,21,13,47,21.50
2013,08,21,13,48,21.60
2013,08,21,13,49,21.60
2013,08,21,13,50,21.70
2013,08,21,13,51,21.70
2013,08,21,13,52,21.60
2013,08,21,13,53,21.60
2013,08,21,13,54,21.60
2013,08,21,13,55,21.60
2013,08,21,13,56,21.70
2013,08,21,13,57,21.70
2013,08,21,13,58,21.70
2013,08,21,13,59,21.70
2013,08,21,14,00,21.70
2013,08,21,14,01,21.60
2013,08,21,14,02,21.60
2013,08,21,14,03,21.70
2013,08,21,14,04,21.80
2013,08,21,14,05,21.80
2013,08,21,14,06,21.80
2013,08,21,14,07,21.80
2013,08,21,14,08,21.80
2013,08,21,14,09,21.80
2013,08,21,14,10,21.80
2013,08,21,14,11,21.80
2013,08,21,14,12,21.80
2013,08,21,14,13,21.90
2013,08,21,14,14,22.00
2013,08,21,14,15,22.10
2013,08,21,14,16,22.10
2013,08,21,14,17,22.20
2013,08,21,14,18,22.20
2013,08,21,14,19,22.20
2013,08,21,14,20,22.20
2013,08,21,14,21,22.20
2013,08,21,14,22,22.20
2013,08,21,14,23,22.30
2013,08,21,14,24,22.30
2013,08,21,14,25,22.40
2013,08,21,14,26,22.40
2013,08,21,14,27,22.40
2013,08,21,14,28,22.50
2013,08,21,14,29,22.60
2013,08,21,14,30,22.70
2013,08,21,14,31,22.80
2013,08,21,14,32,23.00
2013,08,21,14,33,23.00
2013,08,21,14,34,23.10
2013,08,21,14,35,23.10
2013,08,21,14,36,23.10
2013,08,21,14,37,23.10
2013,08,21,14,38,23.10
2013,08,21,14,39,23.10
2013,08,21,14,40,23.10
2013,08,21,14,41,23.10
2013,08,21,14,42,23.10
2013,08,21,14,43,23.10
2013,08,21,14,44,23.10
2013,08,21,14,45,23.20
2013,08,21,14,46,23.30
2013,08,21,14,47,23.40
2013,08,21,14,48,23.40
2013,08,21,14,49,23.40
2013,08,21,14,50,23.40
2013,08,21,14,51,23.50
2013,08,21,14,52,23.50
2013,08,21,14,53,23.50
2013,08,21,14,54,23.60
2013,08,21,14,55,23.70
2013,08,21,14,56,23.80
2013,08,21,14,57,23.80
2013,08,21,14,58,23.80
2013,08,21,14,59,23.80
2013,08,21,15,00,23.80
2013,08,21,15,01,23.80
2013,08,21,15,02,23.70
2013,08,21,15,03,23.60
2013,08,21,15,04,23.50
2013,08,21,15,05,23.40
2013,08,21,15,06,23.30
2013,08,21,15,07,23.30
2013,08,21,15,08,23.30
2013,08,21,15,09,23.30
2013,08,21,15,10,23.30
2013,08,21,15,11,23.30
2013,08,21,15,12,23.30
2013,08,21,15,13,23.30
2013,08,21,15,14,23.30
2013,08,21,15,15,23.30
2013,08,21,15,16,23.30
2013,08,21,15,17,23.30
2013,08,21,15,18,23.30
2013,08,21,15,19,23.30
2013,08,21,15,20,23.30
2013,08,21,15,21,23.40
2013,08,21,15,22,23.40
2013,08,21,15,23,23.40
2013,08,21,15,24,23.40
2013,08,21,15,25,23.40
2013,08,21,15,26,23.50
2013,08,21,15,27,23.50
2013,08,21,15,28,23.50
2013,08,21,15,29,23.50
2013,08,21,15,30,23.60
2013,08,21,15,31,23.60
2013,08,21,15,32,23.60
2013,08,21,15,33,23.50
2013,08,21,15,34,23.50
2013,08,21,15,35,23.50
2013,08,21,15,36,23.40
2013,08,21,15,37,23.40
2013,08,21,15,38,23.40
2013,08,21,15,39,23.50
2013,08,21,15,40,23.50
2013,08,21,15,41,23.60
2013,08,21,15,42,23.50
2013,08,21,15,43,23.50
2013,08,21,15,44,23.40
2013,08,21,15,45,23.40
2013,08,21,15,46,23.30
2013,08,21,15,47,23.30
2013,08,21,15,48,23.30
2013,08,21,15,49,23.40
2013,08,21,15,50,23.50
2013,08,21,15,51,23.50
2013,08,21,15,52,23.60
2013,08,21,15,53,23.70
2013,08,21,15,54,23.70
2013,08,21,15,55,23.70
2013,08,21,15,56,23.80
2013,08,21,15,57,23.80
2013,08,21,15,58,23.90
2013,08,21,15,59,24.00
2013,08,21,16,00,24.00
2013,08,21,16,01,24.10
2013,08,21,16,02,24.10
2013,08,21,16,03,24.00
2013,08,21,16,04,23.90
2013,08,21,16,05,23.80
2013,08,21,16,06,23.80
2013,08,21,16,07,23.80
2013,08,21,16,08,23.80
2013,08,21,16,09,23.90
2013,08,21,16,10,23.90
2013,08,21,16,11,24.00
2013,08,21,16,12,24.00
2013,08,21,16,13,24.00
2013,08,21,16,14,24.00
2013,08,21,16,15,24.00
2013,08,21,16,16,24.00
2013,08,21,16,17,24.10
2013,08,21,16,18,24.10
2013,08,21,16,19,24.10
2013,08,21,16,20,24.10
2013,08,21,16,21,24.20
2013,08,21,16,22,24.20
2013,08,21,16,23,24.20
2013,08,21,16,24,24.30
2013,08,21,16,25,24.30
2013,08,21,16,26,24.20
2013,08,21,16,27,24.20
2013,08,21,16,28,24.20
2013,08,21,16,29,24.20
2013,08,21,16,30,24.20
2013,08,21,16,31,24.30
2013,08,21,16,32,24.30
2013,08,21,16,33,24.30
2013,08,21,16,34,24.30
2013,08,21,16,35,24.30
2013,08,21,16,36,24.30
2013,08,21,16,37,24.30
2013,08,21,16,38,24.30
2013,08,21,16,39,24.30
2013,08,21,16,40,24.30
2013,08,21,16,41,24.30
2013,08,21,16,42,24.20
2013,08,21,16,43,24.20
2013,08,21,16,44,24.30
2013,08,21,16,45,24.30
2013,08,21,16,46,24.30
2013,08,21,16,47,24.40
2013,08,21,16,48,24.40
2013,08,21,16,49,24.50
2013,08,21,16,50,24.50
2013,08,21,16,51,24.50
2013,08,21,16,52,24.50
2013,08,21,16,53,24.60
2013,08,21,16,54,24.60
2013,08,21,16,55,24.60
2013,08,21,16,56,24.60
2013,08,21,16,57,24.60
2013,08,21,16,58,24.50
2013,08,21,16,59,24.50
2013,08,21,17,00,24.40
2013,08,21,17,01,24.40
2013,08,21,17,02,24.50
2013,08,21,17,03,24.50
2013,08,21,17,04,24.60
2013,08,21,17,05,24.60
2013,08,21,17,06,24.50
2013,08,21,17,07,24.50
2013,08,21,17,08,24.40
2013,08,21,17,09,24.40
2013,08,21,17,10,24.40
2013,08,21,17,11,24.30
2013,08,21,17,12,24.30
2013,08,21,17,13,24.30
2013,08,21,17,14,24.30
2013,08,21,17,15,24.30
2013,08,21,17,16,24.30
2013,08,21,17,17,24.30
2013,08,21,17,18,24.40
2013,08,21,17,19,24.40
2013,08,21,17,20,24.50
2013,08,21,17,21,24.50
2013,08,21,17,22,24.40